Regional Weather Roundup
Issued by NWS

Home | Current Version | Previous Version | Text Only | Print | Product List | Glossary On
Versions: 1 2 3 4 5 6 7 8 9 10 11 12 13 14 15 16 17 18 19 20 21 22 23 24 25 26 27 28 29 30 31 32 33 34 35 36 37 38 39 40 41 42 43 44 45 46 47 48 49 50
000
ASUS43 KBIS 011059
RWRND

NORTH DAKOTA REGIONAL WEATHER ROUNDUP
NATIONAL WEATHER SERVICE BISMARCK ND
600 AM CDT MON SEP 01 2014

NOTE: "FAIR" INDICATES FEW OR NO CLOUDS BELOW 12,000 FEET WITH NO
SIGNIFICANT WEATHER AND/OR OBSTRUCTIONS TO VISIBILITY.


NDZ001>003-009>011-017-011200-
NORTHWEST NORTH DAKOTA

CITY           SKY/WX    TMP DP  RH WIND       PRES   REMARKS
WILLISTON      CLEAR     48  45  89 SW6       29.81R
MINOT          CLEAR     52  49  89 SW9       29.73S
$$

NDZ018>021-031>035-040>046-011200-
SOUTHWEST NORTH DAKOTA

CITY           SKY/WX    TMP DP  RH WIND       PRES   REMARKS
BISMARCK       CLEAR     52  51  97 W5        29.78S
DICKINSON      CLEAR     51  46  83 W9        29.79S
GARRISON         N/A     48  47  96 W5        29.75F
HETTINGER ARPT CLEAR     46  44  93 NW7       29.84F
$$

NDZ004>008-012>016-024-026-027-054-011200-
NORTHEAST NORTH DAKOTA

CITY           SKY/WX    TMP DP  RH WIND       PRES   REMARKS
GRAND FORKS    MOCLDY    52  50  93 SW3       29.66F
DEVILS LAKE    CLEAR     55  48  76 W9        29.69S
$$

NDZ022-023-025-028>030-036>039-047>053-011200-
SOUTHEAST NORTH DAKOTA

CITY           SKY/WX    TMP DP  RH WIND       PRES   REMARKS
FARGO          MOCLDY    53  51  93 CALM      29.69R
$$




USA.gov is the U.S. government's official web portal to all federal, state and local government web resources and services.